When you browse on this site, cookies collect data to enhance your experience and personalize the content and advertising you see.
Visit our Privacy Policy to learn more. By continuing to use the site, you agree to this use of cookies and data.
  • Em Portugal
  • Lista de países
  • Para 7 dias
  • Temperatura da água
  • Mapa do tempo
  • Widgets de tempo
  • user-avatar
    Iniciar Sessão

    Previsão horária em Sharan

    Hoje, 24 Outubro, Quinta-feira

    Tempo Temperatura Precipitação Vento Pressão Humidade
    00:00 +9°C° 0 mm 2 m/s 585 mmHg 41%
    01:00 +8°C° 0 mm 2 m/s 585 mmHg 43%
    02:00 +8°C° 0 mm 1 m/s 585 mmHg 44%
    03:00 +8°C° 0 mm 1 m/s 584 mmHg 45%
    04:00 +7°C° 0 mm 1 m/s 584 mmHg 46%
    05:00 +7°C° 0 mm 1 m/s 584 mmHg 46%
    06:00 +7°C° 0 mm 0 m/s 585 mmHg 43%
    07:00 +8°C° 0 mm 0 m/s 586 mmHg 39%
    08:00 +9°C° 0 mm 0 m/s 587 mmHg 35%
    09:00 +11°C° 0 mm 1 m/s 587 mmHg 32%
    10:00 +13°C° 0 mm 1 m/s 588 mmHg 28%
    11:00 +14°C° 0 mm 1 m/s 588 mmHg 25%
    12:00 +15°C° 0 mm 1 m/s 588 mmHg 23%
    13:00 +17°C° 0 mm 2 m/s 588 mmHg 21%
    14:00 +18°C° 0 mm 3 m/s 588 mmHg 19%
    15:00 +17°C° 0 mm 3 m/s 588 mmHg 19%
    16:00 +17°C° 0 mm 3 m/s 588 mmHg 19%
    17:00 +17°C° 0 mm 3 m/s 587 mmHg 19%
    18:00 +14°C° 0 mm 3 m/s 587 mmHg 22%
    19:00 +13°C° 0 mm 3 m/s 587 mmHg 24%
    20:00 +12°C° 0 mm 3 m/s 587 mmHg 27%
    21:00 +11°C° 0 mm 3 m/s 587 mmHg 29%
    22:00 +10°C° 0 mm 2 m/s 586 mmHg 32%
    23:00 +9°C° 0 mm 2 m/s 586 mmHg 34%

    Amanhã, 25 Outubro, Sexta-feira

    Tempo Temperatura Precipitação Vento Pressão Humidade
    00:00 +8°C° 0 mm 2 m/s 586 mmHg 35%
    01:00 +8°C° 0 mm 2 m/s 586 mmHg 37%
    02:00 +8°C° 0 mm 1 m/s 585 mmHg 38%
    03:00 +8°C° 0 mm 1 m/s 585 mmHg 39%
    04:00 +7°C° 0 mm 1 m/s 585 mmHg 41%
    05:00 +7°C° 0 mm 1 m/s 584 mmHg 42%
    06:00 +8°C° 0 mm 1 m/s 585 mmHg 38%
    07:00 +9°C° 0 mm 1 m/s 586 mmHg 35%
    08:00 +10°C° 0 mm 1 m/s 587 mmHg 32%
    09:00 +11°C° 0 mm 1 m/s 588 mmHg 29%
    10:00 +13°C° 0 mm 1 m/s 588 mmHg 26%
    11:00 +15°C° 0 mm 1 m/s 589 mmHg 23%
    12:00 +16°C° 0 mm 2 m/s 589 mmHg 21%
    13:00 +17°C° 0 mm 2 m/s 589 mmHg 19%
    14:00 +18°C° 0 mm 3 m/s 589 mmHg 17%
    15:00 +18°C° 0 mm 3 m/s 589 mmHg 17%
    16:00 +17°C° 0 mm 3 m/s 588 mmHg 17%
    17:00 +17°C° 0 mm 4 m/s 588 mmHg 16%
    18:00 +16°C° 0 mm 3 m/s 588 mmHg 19%
    19:00 +13°C° 0 mm 3 m/s 588 mmHg 21%
    20:00 +12°C° 0 mm 3 m/s 588 mmHg 23%
    21:00 +11°C° 0 mm 3 m/s 587 mmHg 25%
    22:00 +10°C° 0 mm 3 m/s 587 mmHg 27%
    23:00 +9°C° 0 mm 2 m/s 587 mmHg 29%

    Depois de amanhã, 26 Outubro, Sábado

    Tempo Temperatura Precipitação Vento Pressão Humidade
    00:00 +9°C° 0 mm 2 m/s 587 mmHg 32%
    01:00 +8°C° 0 mm 2 m/s 586 mmHg 35%
    02:00 +8°C° 0 mm 1 m/s 586 mmHg 38%
    03:00 +8°C° 0 mm 1 m/s 586 mmHg 37%
    04:00 +7°C° 0 mm 1 m/s 585 mmHg 37%
    05:00 +7°C° 0 mm 1 m/s 585 mmHg 37%
    06:00 +8°C° 0 mm 1 m/s 586 mmHg 34%
    07:00 +9°C° 0 mm 1 m/s 587 mmHg 30%
    08:00 +9°C° 0 mm 0 m/s 588 mmHg 27%
    09:00 +12°C° 0 mm 1 m/s 589 mmHg 24%
    10:00 +13°C° 0 mm 1 m/s 590 mmHg 21%
    11:00 +15°C° 0 mm 2 m/s 590 mmHg 19%
    12:00 +16°C° 0 mm 2 m/s 590 mmHg 17%
    13:00 +17°C° 0 mm 3 m/s 590 mmHg 16%
    14:00 +18°C° 0 mm 3 m/s 590 mmHg 14%
    15:00 +18°C° 0 mm 3 m/s 590 mmHg 15%
    16:00 +17°C° 0 mm 3 m/s 590 mmHg 15%
    17:00 +17°C° 0 mm 4 m/s 589 mmHg 15%
    18:00 +14°C° 0 mm 3 m/s 589 mmHg 18%
    19:00 +14°C° 0 mm 2 m/s 589 mmHg 20%
    20:00 +12°C° 0 mm 2 m/s 588 mmHg 23%
    21:00 +10°C° 0 mm 2 m/s 588 mmHg 26%
    22:00 +11°C° 0 mm 1 m/s 588 mmHg 28%
    23:00 +10°C° 0 mm 1 m/s 588 mmHg 31%

    , 27 Outubro, Domingo

    Tempo Temperatura Precipitação Vento Pressão Humidade
    00:00 +10°C° 0 mm 1 m/s 587 mmHg 34%
    01:00 +9°C° 0 mm 1 m/s 587 mmHg 37%
    02:00 +8°C° 0 mm 1 m/s 587 mmHg 41%
    03:00 +8°C° 0 mm 1 m/s 586 mmHg 41%
    04:00 +7°C° 0 mm 0 m/s 586 mmHg 40%
    05:00 +6°C° 0 mm 0 m/s 586 mmHg 40%
    06:00 +8°C° 0 mm 0 m/s 587 mmHg 37%
    07:00 +9°C° 0 mm 0 m/s 588 mmHg 33%
    08:00 +10°C° 0 mm 0 m/s 589 mmHg 29%
    09:00 +13°C° 0 mm 1 m/s 589 mmHg 27%
    10:00 +14°C° 0 mm 1 m/s 590 mmHg 24%
    11:00 +15°C° 0 mm 2 m/s 590 mmHg 21%
    12:00 +16°C° 0 mm 2 m/s 590 mmHg 19%
    13:00 +17°C° 0 mm 3 m/s 590 mmHg 18%
    14:00 +18°C° 0 mm 3 m/s 590 mmHg 17%
    15:00 +18°C° 0 mm 3 m/s 590 mmHg 18%
    16:00 +18°C° 0 mm 3 m/s 590 mmHg 19%
    17:00 +18°C° 0 mm 3 m/s 590 mmHg 20%
    18:00 +16°C° 0 mm 3 m/s 590 mmHg 24%
    19:00 +15°C° 0 mm 2 m/s 589 mmHg 28%
    20:00 +14°C° 0 mm 2 m/s 589 mmHg 32%
    21:00 +13°C° 0 mm 1 m/s 589 mmHg 37%
    22:00 +12°C° 0 mm 1 m/s 588 mmHg 43%
    23:00 +11°C° 0 mm 1 m/s 588 mmHg 48%

    27 Outubro, Domingo

    Tempo Temperatura Precipitação Vento Pressão Humidade
    00:00 +10°C° 0 mm 1 m/s 587 mmHg 34%
    01:00 +9°C° 0 mm 1 m/s 587 mmHg 37%
    02:00 +8°C° 0 mm 1 m/s 587 mmHg 41%
    03:00 +8°C° 0 mm 1 m/s 586 mmHg 41%
    04:00 +7°C° 0 mm 0 m/s 586 mmHg 40%
    05:00 +6°C° 0 mm 0 m/s 586 mmHg 40%
    06:00 +8°C° 0 mm 0 m/s 587 mmHg 37%
    07:00 +9°C° 0 mm 0 m/s 588 mmHg 33%
    08:00 +10°C° 0 mm 0 m/s 589 mmHg 29%
    09:00 +13°C° 0 mm 1 m/s 589 mmHg 27%
    10:00 +14°C° 0 mm 1 m/s 590 mmHg 24%
    11:00 +15°C° 0 mm 2 m/s 590 mmHg 21%
    12:00 +16°C° 0 mm 2 m/s 590 mmHg 19%
    13:00 +17°C° 0 mm 3 m/s 590 mmHg 18%
    14:00 +18°C° 0 mm 3 m/s 590 mmHg 17%
    15:00 +18°C° 0 mm 3 m/s 590 mmHg 18%
    16:00 +18°C° 0 mm 3 m/s 590 mmHg 19%
    17:00 +18°C° 0 mm 3 m/s 590 mmHg 20%
    18:00 +16°C° 0 mm 3 m/s 590 mmHg 24%
    19:00 +15°C° 0 mm 2 m/s 589 mmHg 28%
    20:00 +14°C° 0 mm 2 m/s 589 mmHg 32%
    21:00 +13°C° 0 mm 1 m/s 589 mmHg 37%
    22:00 +12°C° 0 mm 1 m/s 588 mmHg 43%
    23:00 +11°C° 0 mm 1 m/s 588 mmHg 48%

    28 Outubro, Segunda-feira

    Tempo Temperatura Precipitação Vento Pressão Humidade
    00:00 +10°C° 0 mm 1 m/s 587 mmHg 50%
    01:00 +10°C° 0 mm 1 m/s 587 mmHg 52%
    02:00 +8°C° 0 mm 0 m/s 586 mmHg 54%
    03:00 +8°C° 0 mm 0 m/s 586 mmHg 57%
    04:00 +7°C° 0 mm 0 m/s 586 mmHg 59%
    05:00 +7°C° 0 mm 0 m/s 585 mmHg 61%
    06:00 +8°C° 0 mm 0 m/s 586 mmHg 57%
    07:00 +9°C° 0 mm 0 m/s 587 mmHg 52%
    08:00 +10°C° 0 mm 0 m/s 588 mmHg 48%
    09:00 +13°C° 0 mm 1 m/s 589 mmHg 44%
    10:00 +14°C° 0 mm 1 m/s 589 mmHg 39%
    11:00 +16°C° 0 mm 2 m/s 590 mmHg 35%
    12:00 +17°C° 0 mm 3 m/s 590 mmHg 33%
    13:00 +18°C° 0 mm 3 m/s 590 mmHg 31%
    14:00 +19°C° 0 mm 4 m/s 590 mmHg 29%
    15:00 +19°C° 0 mm 4 m/s 590 mmHg 29%
    16:00 +19°C° 0 mm 4 m/s 590 mmHg 29%
    17:00 +19°C° 0 mm 4 m/s 590 mmHg 29%
    18:00 +17°C° 0.1 mm 3 m/s 590 mmHg 33%
    19:00 +16°C° 0.1 mm 3 m/s 590 mmHg 37%
    20:00 +15°C° 0.1 mm 2 m/s 590 mmHg 41%
    21:00 +14°C° 0 mm 2 m/s 590 mmHg 44%
    22:00 +13°C° 0 mm 1 m/s 589 mmHg 47%
    23:00 +12°C° 0 mm 1 m/s 589 mmHg 50%

    29 Outubro, Terça-feira

    Tempo Temperatura Precipitação Vento Pressão Humidade
    00:00 +12°C° 0 mm 1 m/s 589 mmHg 53%
    01:00 +11°C° 0 mm 1 m/s 588 mmHg 55%
    02:00 +10°C° 0 mm 1 m/s 588 mmHg 58%
    03:00 +10°C° 0 mm 1 m/s 588 mmHg 58%
    04:00 +10°C° 0 mm 1 m/s 588 mmHg 59%
    05:00 +10°C° 0 mm 1 m/s 588 mmHg 59%
    06:00 +11°C° 0 mm 1 m/s 588 mmHg 55%
    07:00 +12°C° 0 mm 1 m/s 589 mmHg 51%
    08:00 +13°C° 0 mm 1 m/s 590 mmHg 47%
    09:00 +14°C° 0 mm 2 m/s 591 mmHg 42%
    10:00 +16°C° 0 mm 3 m/s 591 mmHg 36%
    11:00 +17°C° 0 mm 5 m/s 592 mmHg 30%
    12:00 +19°C° 0 mm 5 m/s 592 mmHg 28%
    13:00 +19°C° 0 mm 6 m/s 592 mmHg 27%
    14:00 +20°C° 0 mm 6 m/s 591 mmHg 25%
    15:00 +20°C° 0 mm 6 m/s 591 mmHg 26%
    16:00 +19°C° 0 mm 6 m/s 591 mmHg 27%
    17:00 +19°C° 0 mm 6 m/s 591 mmHg 28%
    18:00 +16°C° 0.1 mm 6 m/s 590 mmHg 33%
    19:00 +15°C° 0.1 mm 5 m/s 590 mmHg 38%
    20:00 +13°C° 0.1 mm 4 m/s 590 mmHg 43%
    21:00 +13°C° 0.1 mm 4 m/s 590 mmHg 44%
    22:00 +12°C° 0.1 mm 4 m/s 589 mmHg 44%
    23:00 +11°C° 0.1 mm 3 m/s 589 mmHg 45%
    Mostrar mais